N0KTA-2 Weather Reports


Display with metric or nautical units.
time (UTC)temp
F
wind
direction
speed
MPH
gust
MPH
rain 1hr
in
rain 24hr
in
rain mn
in
humidity
%
barometer
mb
20260904054050 83 188 5.0 6.0 0.00 0.00 0.00 65 1006.6
20260904053050 83 192 2.0 7.0 0.00 0.00 0.00 65 1006.5
20260904052050 84 192 3.0 5.0 0.00 0.00 0.00 65 1006.5
20260904051051 84 189 3.0 7.0 0.00 0.00 0.00 65 1006.4
20260904050050 84 188 5.0 6.0 0.00 0.00 0.00 64 1006.3
20260904045050 85 197 2.0 3.0 0.00 0.00 0.00 64 1006.2
20260904044049 85 188 3.0 6.0 0.00 0.00 0.00 63 1006.1
20260904043050 85 195 6.0 10.0 0.00 0.00 0.00 62 1006.1
20260904042050 85 189 5.0 6.0 0.00 0.00 0.00 62 1006.2
20260904041051 85 192 3.0 5.0 0.00 0.00 0.00 62 1006.1
20260904040050 86 186 5.0 13.0 0.00 0.00 0.00 62 1006.3
20260904035049 86 184 5.0 6.0 0.00 0.00 0.00 61 1006.3
20260904034051 86 183 5.0 9.0 0.00 0.00 0.00 61 1006.3
20260904033050 87 187 5.0 5.0 0.00 0.00 0.00 60 1006.3
20260904032049 87 185 3.0 5.0 0.00 0.00 0.00 60 1006.2
20260904031050 87 199 3.0 3.0 0.00 0.00 0.00 60 1006.2
20260904030050 87 164 5.0 6.0 0.00 0.00 0.00 59 1006.3
20260904025049 88 196 3.0 9.0 0.00 0.00 0.00 58 1006.2
20260904024051 88 190 3.0 5.0 0.00 0.00 0.00 58 1006.1
20260904023049 89 206 3.0 5.0 0.00 0.00 0.00 57 1005.9
20260904022050 89 188 2.0 6.0 0.00 0.00 0.00 56 1005.7
20260904021050 90 185 3.0 7.0 0.00 0.00 0.00 55 1005.7
20260904020050 90 191 5.0 5.0 0.00 0.00 0.00 55 1005.7
20260904015051 91 192 7.0 8.0 0.00 0.00 0.00 54 1005.3
20260904014050 91 187 5.0 12.0 0.00 0.00 0.00 53 1005.1
20260904013051 92 185 7.0 13.0 0.00 0.00 0.00 52 1004.8
20260904012049 92 183 6.0 9.0 0.00 0.00 0.00 51 1004.7
20260904011050 92 185 6.0 12.0 0.00 0.00 0.00 50 1004.6
20260904010051 93 189 6.0 7.0 0.00 0.00 0.00 49 1004.6
20260904005050 94 185 5.0 10.0 0.00 0.00 0.00 48 1004.5
20260904004051 94 185 3.0 5.0 0.00 0.00 0.00 47 1004.4
20260904003050 95 185 7.0 10.0 0.00 0.00 0.00 46 1004.2
20260904002049 95 189 6.0 7.0 0.00 0.00 0.00 45 1004.1
20260904001050 96 185 6.0 7.0 0.00 0.00 0.00 44 1004.1
20260904000051 96 198 8.0 9.0 0.00 0.00 0.00 43 1004.0
20260903235050 97 187 3.0 13.0 0.00 0.00 0.00 43 1004.0
20260903234049 97 187 6.0 15.0 0.00 0.00 0.00 42 1004.0
20260903233050 97 184 8.0 10.0 0.00 0.00 0.00 42 1004.0
20260903232049 97 174 10.0 17.0 0.00 0.00 0.00 42 1003.9
20260903231050 97 189 3.0 6.0 0.00 0.00 0.00 41 1003.8
20260903230050 98 182 5.0 6.0 0.00 0.00 0.00 40 1003.7
20260903225051 98 187 8.0 13.0 0.00 0.00 0.00 40 1003.8
20260903224050 98 178 3.0 6.0 0.00 0.00 0.00 40 1003.7
20260903223050 98 181 6.0 12.0 0.00 0.00 0.00 40 1003.8
20260903222050 98 193 5.0 9.0 0.00 0.00 0.00 39 1003.8
20260903221049 98 182 5.0 10.0 0.00 0.00 0.00 40 1003.7
20260903220050 98 182 5.0 9.0 0.00 0.00 0.00 40 1003.9
20260903215049 99 177 6.0 12.0 0.00 0.00 0.00 39 1003.9
20260903214050 99 189 2.0 7.0 0.00 0.00 0.00 38 1003.9
20260903213049 98 190 7.0 7.0 0.00 0.00 0.00 38 1003.9
20260903212050 98 183 6.0 12.0 0.00 0.00 0.00 39 1004.0
20260903211049 98 202 3.0 12.0 0.00 0.00 0.00 39 1004.1
20260903210050 98 188 10.0 15.0 0.00 0.00 0.00 38 1004.2
20260903205049 98 189 6.0 9.0 0.00 0.00 0.00 40 1004.3
20260903204049 98 181 6.0 7.0 0.00 0.00 0.00 40 1004.3
20260903203051 98 187 3.0 6.0 0.00 0.00 0.00 41 1004.4
20260903202049 98 186 7.0 12.0 0.00 0.00 0.00 41 1004.4
20260903201050 98 192 5.0 9.0 0.00 0.00 0.00 42 1004.5
20260903200049 97 203 6.0 10.0 0.00 0.00 0.00 42 1004.7
20260903195050 97 206 5.0 10.0 0.00 0.00 0.00 43 1004.9
20260903194049 97 211 9.0 13.0 0.00 0.00 0.00 43 1005.0
20260903193050 97 198 7.0 12.0 0.00 0.00 0.00 44 1005.2
20260903192049 97 189 3.0 7.0 0.00 0.00 0.00 45 1005.4
20260903191050 96 181 5.0 9.0 0.00 0.00 0.00 46 1005.5
20260903190050 96 193 7.0 9.0 0.00 0.00 0.00 46 1005.5
20260903185050 95 194 3.0 13.0 0.00 0.00 0.00 47 1005.7
20260903184050 95 277 1.0 3.0 0.00 0.00 0.00 47 1006.0
20260903183049 95 184 9.0 12.0 0.00 0.00 0.00 48 1006.1
20260903182050 94 183 6.0 10.0 0.00 0.00 0.00 49 1006.1
20260903181049 94 184 2.0 6.0 0.00 0.00 0.00 49 1006.5
20260903180050 94 185 8.0 10.0 0.00 0.00 0.00 49 1006.6
20260903175049 94 208 5.0 7.0 0.00 0.00 0.00 50 1006.6
20260903174050 93 190 9.0 15.0 0.00 0.00 0.00 49 1006.7
20260903173049 93 175 1.0 9.0 0.00 0.00 0.00 50 1006.8
20260903172050 92 211 7.0 16.0 0.00 0.00 0.00 50 1007.1
20260903171050 93 189 7.0 10.0 0.00 0.00 0.00 50 1007.1
20260903170050 92 187 7.0 10.0 0.00 0.00 0.00 52 1007.1
20260903165049 91 269 1.0 2.0 0.00 0.00 0.00 53 1007.2
20260903164050 91 206 9.0 14.0 0.00 0.00 0.00 54 1007.2
20260903163049 90 206 3.0 12.0 0.00 0.00 0.00 55 1007.4
20260903162050 89 213 8.0 12.0 0.00 0.00 0.00 58 1007.5
20260903161049 89 210 5.0 9.0 0.00 0.00 0.00 60 1007.7
20260903160050 87 212 0.0 6.0 0.00 0.00 0.00 60 1007.8
20260903155049 87 262 2.0 9.0 0.00 0.00 0.00 61 1007.8
20260903154050 87 232 5.0 16.0 0.00 0.00 0.00 61 1007.8
20260903153050 86 191 6.0 12.0 0.00 0.00 0.00 62 1007.8
20260903152050 86 210 2.0 9.0 0.00 0.00 0.00 63 1007.8
20260903151050 85 210 2.0 5.0 0.00 0.00 0.00 65 1007.8
20260903150049 84 181 8.0 14.0 0.00 0.00 0.00 66 1007.8
20260903145050 83 193 7.0 13.0 0.00 0.00 0.00 66 1007.9
20260903144049 83 193 5.0 5.0 0.00 0.00 0.00 68 1007.9
20260903143049 82 179 8.0 12.0 0.00 0.00 0.00 69 1008.0
20260903142049 82 217 5.0 9.0 0.00 0.00 0.00 69 1008.0
20260903141050 81 192 5.0 7.0 0.00 0.00 0.00 70 1008.1
20260903140050 81 176 5.0 12.0 0.00 0.00 0.00 72 1008.2
20260903135049 80 224 3.0 3.0 0.00 0.00 0.00 72 1008.2
20260903134050 79 198 3.0 7.0 0.00 0.00 0.00 73 1008.2
20260903133049 79 184 5.0 6.0 0.00 0.00 0.00 73 1008.2
20260903132050 78 190 6.0 6.0 0.00 0.00 0.00 74 1008.2
20260903131050 78 185 3.0 5.0 0.00 0.00 0.00 74 1008.2
20260903130049 78 199 3.0 5.0 0.00 0.00 0.00 74 1007.9
20260903125049 78 198 6.0 7.0 0.00 0.00 0.00 74 1007.9
20260903124049 77 190 6.0 10.0 0.00 0.00 0.00 73 1007.9
20260903123049 77 195 3.0 6.0 0.00 0.00 0.00 73 1007.8
20260903122050 78 177 5.0 7.0 0.00 0.00 0.00 72 1007.6
20260903121050 78 177 3.0 5.0 0.00 0.00 0.00 72 1007.5
20260903120050 78 190 3.0 3.0 0.00 0.00 0.00 71 1007.3
20260903115049 78 190 5.0 7.0 0.00 0.00 0.00 71 1007.2
20260903114050 78 191 3.0 3.0 0.00 0.00 0.00 71 1007.1
20260903113049 78 195 3.0 3.0 0.00 0.00 0.00 70 1007.2
20260903112050 78 187 1.0 3.0 0.00 0.00 0.00 70 1007.2
20260903111049 79 189 1.0 3.0 0.00 0.00 0.00 69 1007.2
20260903110050 79 199 2.0 3.0 0.00 0.00 0.00 68 1007.1
20260903105050 79 195 2.0 3.0 0.00 0.00 0.00 68 1007.1
20260903104049 80 195 1.0 5.0 0.00 0.00 0.00 68 1007.1
20260903103050 80 207 2.0 3.0 0.00 0.00 0.00 68 1007.1
20260903102049 80 191 5.0 5.0 0.00 0.00 0.00 67 1007.1
20260903101050 80 187 2.0 5.0 0.00 0.00 0.00 67 1007.1
20260903100049 80 186 3.0 5.0 0.00 0.00 0.00 66 1007.1
20260903095050 81 186 2.0 3.0 0.00 0.00 0.00 66 1007.0
20260903094049 81 188 2.0 3.0 0.00 0.00 0.00 65 1007.0
20260903093050 81 185 2.0 5.0 0.00 0.00 0.00 65 1007.0
20260903092049 81 186 1.0 2.0 0.00 0.00 0.00 64 1006.9
20260903091050 82 191 3.0 6.0 0.00 0.00 0.00 63 1006.9
20260903090049 82 186 3.0 7.0 0.00 0.00 0.00 62 1006.6
20260903085050 82 192 3.0 7.0 0.00 0.00 0.00 62 1006.5
20260903084049 82 180 3.0 3.0 0.00 0.00 0.00 62 1006.5
20260903083050 82 187 3.0 9.0 0.00 0.00 0.00 61 1006.5
20260903082049 82 184 3.0 7.0 0.00 0.00 0.00 60 1006.5
20260903081049 82 192 5.0 6.0 0.00 0.00 0.00 60 1006.5
20260903080050 82 188 5.0 7.0 0.00 0.00 0.00 59 1006.5
20260903075049 82 185 5.0 9.0 0.00 0.00 0.00 59 1006.5
20260903074050 82 186 2.0 3.0 0.00 0.00 0.00 59 1006.5
20260903073049 82 190 5.0 5.0 0.00 0.00 0.00 59 1006.5
20260903072049 82 192 2.0 5.0 0.00 0.00 0.00 59 1006.5
20260903071048 82 185 3.0 5.0 0.00 0.00 0.00 59 1006.5
20260903070050 82 190 3.0 3.0 0.00 0.00 0.00 59 1006.5
20260903065049 82 184 3.0 6.0 0.00 0.00 0.00 59 1006.5
20260903064049 83 184 3.0 5.0 0.00 0.00 0.00 58 1006.4
20260903063050 83 181 2.0 3.0 0.00 0.00 0.00 58 1006.3
20260903062049 83 188 3.0 5.0 0.00 0.00 0.00 58 1006.3
20260903061049 83 192 1.0 2.0 0.00 0.00 0.00 57 1006.3
20260903060050 83 194 1.0 3.0 0.00 0.00 0.00 57 1006.5
20260903055049 84 205 0.0 1.0 0.00 0.00 0.00 56 1006.4